Date,TemperatureHighF,TemperatureAvgF,TemperatureLowF,DewpointHighF,DewpointAvgF,DewpointLowF,HumidityHigh,HumidityAvg,HumidityLow,PressureMaxIn,PressureMinIn,WindSpeedMaxMPH,WindSpeedAvgMPH,GustSpeedMaxMPH,PrecipitationSumIn
2013-10-1,71,58,49,64,56,49,100,96,65,29.96,29.87,5,0,5,0.00
2013-10-2,72,59,50,65,58,50,100,97,74,29.99,29.92,5,0,5,0.00
2013-10-3,71,61,55,68,61,55,100,99,88,29.96,29.89,4,0,4,0.00
2013-10-4,70,61,54,67,61,54,100,98,85,30.00,29.93,4,0,4,0.00
2013-10-5,73,62,54,70,61,54,100,97,85,29.98,29.88,7,0,7,0.00
2013-10-6,72,63,58,66,62,58,100,95,76,29.89,29.72,5,1,5,0.02
2013-10-7,61,55,48,61,55,48,100,99,85,29.85,29.64,10,1,10,0.94
2013-10-8,64,52,41,59,51,41,100,96,81,29.96,29.84,6,0,6,0.00
2013-10-9,68,53,44,61,52,44,100,97,71,29.98,29.91,7,1,7,0.00
2013-10-10,64,54,44,56,52,44,100,93,71,29.92,29.84,7,1,7,0.00
2013-10-11,67,55,46,58,53,46,100,92,60,29.87,29.80,8,1,8,0.00
2013-10-12,69,58,49,62,56,49,100,95,73,29.92,29.82,10,1,10,0.00
2013-10-13,64,60,56,64,59,56,100,100,94,30.01,29.91,6,1,6,0.05
2013-10-14,67,59,53,64,58,53,100,99,86,30.02,29.93,5,0,5,0.00
2013-10-15,66,57,52,63,57,52,100,98,84,29.97,29.84,5,0,5,0.00
2013-10-16,65,57,50,61,56,50,100,97,80,29.86,29.77,5,0,6,0.01
2013-10-17,66,59,52,65,59,52,100,99,90,29.78,29.67,8,1,8,0.08
2013-10-18,65,53,47,59,52,47,100,95,67,29.81,29.72,5,0,6,0.00
2013-10-19,61,52,46,54,47,37,100,86,43,29.76,29.67,11,1,11,0.00
2013-10-20,62,46,36,48,42,36,100,88,50,29.83,29.73,6,1,6,0.00
2013-10-21,65,50,39,51,45,39,100,87,48,29.87,29.77,6,1,6,0.00
2013-10-22,65,54,49,52,49,45,100,84,53,29.79,29.61,10,1,11,0.00
2013-10-23,50,43,32,46,37,28,100,79,51,29.77,29.54,14,3,14,0.00
2013-10-24,48,38,29,37,34,29,100,84,61,29.87,29.76,14,2,14,0.00
2013-10-25,41,33,26,35,28,23,100,82,55,30.04,29.87,10,2,10,0.00
2013-10-26,56,39,25,42,30,25,100,73,34,30.00,29.81,10,1,10,0.00
2013-10-27,59,51,43,52,47,42,100,89,69,29.89,29.80,7,1,7,0.00
2013-10-28,56,51,47,55,51,47,100,99,92,30.01,29.87,5,0,5,0.02
2013-10-29,64,54,47,53,49,47,100,86,55,30.08,29.99,7,1,7,0.00
2013-10-30,68,60,52,57,54,49,99,84,63,30.05,29.95,8,1,9,0.00
2013-10-31,64,60,56,61,56,52,100,88,72,29.96,29.60,14,1,14,0.01